SCP
0 0 0 0 0 0 0 0 0 0 0 0 0 0 0 0 0 0 0 0 0 0 0 0 0 0 0 0 0 0 0 0 0 0 0 0 0 0 0 0 0 0 0 0
0 0 0 0 0 0 0 0 0 0 0 0 0 0 0 0 0 0 0 0 0 0 0 0 0 0 0 0 0 0 0 0 0 0 0 0 0 0 0 0 0 0 0 0
0 0 0 0 0 0 0 0 0 0 0 0 0 0 0 0 0 0 0 0 0 0 0 0 0 0 0 0 0 0 0 0 0 0 0 0 0 0 0 0 0 0 0 0
0 0 0 0 0 0 0 0 0 0 0 0 0 0 0 0 0 0 0 0 0 0 0 0 0 0 0 0 0 0 0 0 0 0 0 0 0 0 0 0 0 0 0 0
0 0 0 0 0 0 0 0 0 0 0 0 0 0 0 0 0 0 0 0 0 0 0 0 0 0 0 0 0 0 0 0 0 0 0 0 0 0 0 0 0 0 0 0
0 0 0 0 0 0 0 0 0 0 0 0 0 0 0 0 0 0 0 0 0 0 0 0 0 0 0 0 0 0 0 0 0 0 0 0 0 0 0 0 0 0 0 0
0 0 0 0 0 0 0 0 0 0 0 0 0 0 0 0 0 0 0 0 0 0 0 0 0 0 0 0 0 0 0 0 0 0 0 0 0 0 0 0 0 0 0 0
0 0 0 0 0 0 0 0 0 0 0 0 0 0 0 0 0 0 0 0 0 0 0 0 0 0 0 0 0 0 0 0 0 0 0 0 0 0 0 0 0 0 0 0
0 0 0 0 0 0 0 0 0 0 0 0 0 0 0 0 0 0 0 0 0 0 0 0 0 0 0 0 0 0 0 0 0 0 0 0 0 0 0 0 0 0 0 0
0 0 0 0 0 0 0 0 0 0 0 0 0 0 0 0 0 0 0 0 0 0 0 0 0 -0 0 0 0 0 0 0 0 0 0 0 0 0 0 0 0 0 0 0
0 0 0 0 0 0 0 0 0 0 0 0 0 0 0 0 0 0 0 0 0 0 0 0 -0 -0 0 0 0 0 0 0 0 0 0 0 0 0 0 0 0 0 0 0
0 0 0 0 0 0 0 0 0 0 0 0 0 0 0 0 0 0 0 0 0 0 0 0 -0 0 0 0 0 0 0 0 0 0 0 0 0 0 0 0 0 0 0 0
0 0 0 0 0 0 0 0 0 0 0 0 0 0 0 0 0 0 0 0 0 0 0 0 0 0 0 0 0 0 0 0 0 0 0 0 0 0 0 0 0 0 0 0
0 0 0 0 0 0 0 0 0 0 0 0 0 0 0 0 0 0 0 0 0 0 0 0 0 0 0 0 0 0 0 0 0 0 0 0 0 0 0 0 0 0 0 0
0 0 0 0 0 0 0 0 0 0 0 0 0 0 0 0 0 0 0 0 0 0 0 0 0 0 0 0 0 0 0 0 0 0 0 0 0 0 0 0 0 0 0 0
0 0 0 0 0 0 0 0 0 0 0 0 0 0 0 0 0 0 0 0 0 0 0 0 0 0 0 0 0 0 0 0 0 0 0 0 0 0 0 0 0 0 0 0
0 0 0 0 0 0 0 0 0 0 0 0 0 0 0 0 0 0 0 0 0 0 0 0 0 0 0 0 0 0 0 0 0 0 0 0 0 0 0 0 0 0 0 0
0 0 0 0 0 0 0 0 0 0 0 0 0 0 0 0 0 0 0 0 0 0 0 0 0 0 0 0 0 0 0 0 0 0 0 0 0 0 0 0 0 0 0 0
0 0 0 0 0 0 0 0 0 0 0 0 0 0 0 0 0 0 0 0 0 0 0 0 0 0 0 0 0 0 0 0 0 0 0 0 0 0 0 0 0 0 0 0
0 0 0 0 0 0 0 0 0 0 0 0 0 0 0 0 0 0 0 0 0 0 0 0 0 0 0 0 0 0 0 0 0 0 0 0 0 0 0 0 0 0 0 0
0 0 0 0 0 0 0 0 0 0 0 0 0 0 0 0 0 0 0 0 0 0 0 0 0 0 0 0 0 0 0 0 0 0 0 0 0 0 0 0 0 0 0 0
0 0 0 0 0 0 0 0 0 0 0 0 0 0 0 0 0 0 0 0 0 0 0 0 0 0 0 0 0 0 0 0 0 0 0 0 0 0 0 0 0 0 0 0
0 0 0 0 0 0 0 0 0 0 0 0 0 0 0 0 0 0 0 0 0 0 0 0 0 0 0 0 0 0 0 0 0 0 0 0 0 0 0 0 0 0 0 0
0 0 0 0 0 0 0 0 0 0 0 0 0 0 0 0 0 0 0 0 0 0 0 0 0 0 0 0 0 0 0 0 0 0 0 0 0 0 0 0 0 0 0 0
0 0 0 0 0 0 0 0 0 0 0 0 0 0 -0 -0 0 0 0 0 0 0 0 0 0 0 0 0 0 0 0 0 0 0 0 0 0 0 0 0 0 0 0 0
0 0 0 0 0 0 0 0 0 0 0 0 0 -0 -0 -0 0 0 0 0 0 0 0 0 0 0 0 0 0 0 0 0 0 0 0 0 0 0 0 0 0 0 0 0
Wind_Speed
1 3 4 5 6 5 4 6 7 6 4 6 8 10 9 7 7 8 7 6 6 4 2 1 1 0 0 0 1 1 1 1 1 1 1 1 1 1 1 1 2 3 3 4
4 4 5 4 5 5 6 7 7 4 3 5 7 10 9 7 8 7 7 6 5 4 3 2 1 0 1 0 1 1 1 1 1 1 1 2 2 2 2 2 2 3 3 4
5 1 3 5 6 6 7 8 6 5 5 4 6 8 8 6 6 6 6 5 5 4 3 3 2 1 0 1 2 1 2 2 1 1 1 0 1 1 2 2 2 3 3 4
3 3 4 5 5 6 6 4 5 5 5 3 4 6 7 6 6 6 5 5 4 3 3 3 2 1 1 1 2 2 2 1 1 1 1 1 2 2 3 3 3 3 4 4
2 3 4 5 5 5 3 3 4 5 5 5 6 6 5 5 7 7 5 4 3 2 2 2 2 2 1 1 1 2 2 1 1 1 1 3 3 3 3 3 4 4 4 4
3 2 3 3 2 3 3 3 3 4 4 6 5 7 5 5 6 6 5 4 3 2 2 2 2 1 1 1 1 2 2 2 1 1 2 3 3 4 4 4 4 4 3 4
2 2 2 2 3 4 3 3 2 3 4 4 2 6 6 2 3 4 4 4 3 2 2 2 1 1 2 2 2 2 2 2 2 2 3 3 4 5 5 5 5 5 4 4
3 3 2 2 2 3 4 4 3 3 3 1 3 6 2 0 1 2 2 3 2 2 2 2 2 2 2 3 3 3 3 3 3 3 4 4 4 4 4 5 5 5 5 5
3 2 1 1 1 2 3 4 1 1 1 4 4 4 3 2 2 2 2 1 1 1 2 3 3 3 3 3 3 3 3 4 4 4 5 5 4 4 5 5 5 5 5 5
2 2 1 1 2 1 2 2 3 3 3 4 4 4 2 3 4 3 2 1 1 1 2 3 3 3 3 3 3 3 4 4 5 5 4 4 5 5 5 5 6 6 6 6
2 2 2 2 4 3 4 3 2 2 3 3 3 2 1 2 3 3 2 1 2 3 4 4 4 4 3 3 3 3 4 4 4 5 5 5 5 5 5 5 6 6 6 6
2 2 2 2 0 2 3 3 4 3 3 3 4 3 3 0 1 1 1 2 3 4 4 4 4 4 4 3 3 3 4 5 5 5 5 5 5 5 5 6 6 6 7 7
3 3 2 3 3 3 4 4 3 1 1 4 5 4 3 1 1 1 2 3 3 4 5 4 4 4 4 4 4 4 5 5 5 5 5 5 5 5 6 6 6 6 6 7
2 3 5 5 1 3 5 6 6 6 5 6 8 8 4 3 3 4 4 4 4 4 5 5 4 4 4 5 4 4 5 5 5 5 5 5 6 6 6 6 6 6 6 6
3 4 4 5 4 4 6 7 9 10 9 8 7 8 8 5 5 5 4 5 5 5 5 6 6 6 5 5 5 5 6 6 6 5 5 6 6 6 6 6 6 6 6 6
2 3 2 4 3 4 7 9 11 11 11 11 11 11 6 5 3 4 4 4 5 6 6 6 6 6 6 6 6 6 7 6 6 6 6 6 6 5 5 5 5 5 5 6
3 3 3 3 2 3 8 9 11 8 8 9 10 7 3 4 5 5 4 5 6 6 7 7 6 6 6 7 7 7 7 7 6 6 6 6 5 5 5 5 5 5 5 5
5 4 2 2 2 7 2 1 5 8 7 8 6 5 5 5 6 6 5 5 6 6 6 6 6 7 7 7 7 7 7 6 6 6 6 6 6 5 5 5 5 5 4 4
4 4 3 3 4 8 4 3 4 5 5 6 8 7 6 4 5 4 3 4 6 6 6 6 6 6 6 6 6 7 7 6 6 6 6 6 6 6 6 5 5 4 4 5
2 3 3 4 4 6 1 3 2 3 5 3 6 7 4 2 4 3 1 4 5 5 5 5 5 6 6 6 6 6 6 6 6 6 6 6 6 6 6 5 5 4 4 4
4 4 6 6 6 7 0 4 5 4 2 1 4 5 4 5 5 4 3 4 4 5 5 5 5 5 6 6 6 6 6 6 6 6 6 6 5 5 5 5 4 3 2 2
7 7 7 6 7 7 5 7 6 2 1 1 2 3 5 5 4 4 4 4 4 4 5 5 5 5 5 5 6 7 7 7 6 5 5 5 5 4 4 3 3 2 1 1
8 6 5 8 6 1 6 5 3 1 2 2 3 4 4 5 5 5 5 5 5 5 5 4 5 6 6 5 5 7 7 6 5 5 5 4 4 4 3 2 2 1 1 1
5 3 4 6 7 5 5 6 5 4 4 4 4 4 4 6 6 6 5 5 5 5 5 4 5 6 6 6 6 6 6 6 5 5 4 4 3 3 2 2 2 1 1 1
4 6 5 7 6 5 6 7 6 5 4 4 5 5 5 5 6 6 5 5 5 5 4 4 5 5 6 6 6 6 6 5 5 4 4 3 3 2 2 2 1 1 1 1
6 8 7 6 5 5 3 3 3 4 5 5 5 5 5 6 6 6 5 5 5 5 4 4 5 6 6 6 6 6 5 5 4 3 3 2 2 2 2 1 1 2 1 1
Wind_Direction
159 186 201 210 221 243 238 240 252 260 270 254 242 251 256 245 240 231 221 212 207 204 197 194 204 310 114 16 315 225 251 252 205 210 205 216 227 238 237 240 242 233 229 225
179 210 225 229 217 218 230 240 255 265 269 261 255 258 251 237 229 220 217 212 207 200 191 176 179 142 56 356 320 308 268 233 208 229 225 230 248 251 248 247 247 246 233 228
211 201 210 208 208 216 238 243 244 260 293 249 258 248 223 208 207 205 209 210 209 206 199 188 196 205 46 336 298 291 305 257 223 228 213 250 270 265 256 247 249 251 246 238
232 235 220 216 220 228 235 245 244 240 253 250 247 258 220 206 202 198 200 199 204 205 199 186 198 219 280 296 294 305 302 277 239 215 225 228 235 254 263 264 259 257 247 239
219 222 225 225 234 235 233 247 243 238 243 259 226 247 228 202 215 209 202 200 193 203 206 199 206 213 274 296 297 309 297 288 276 244 253 250 256 266 269 268 263 264 254 242
246 247 248 249 245 220 201 221 228 224 231 247 221 230 243 206 218 206 201 201 207 203 209 220 226 222 309 290 291 312 292 289 297 267 260 263 269 275 271 267 266 265 262 248
212 200 198 220 198 177 204 218 225 217 219 238 172 233 252 220 219 208 203 204 214 215 215 221 235 278 294 296 293 296 286 291 308 294 274 268 267 267 263 263 261 263 259 255
213 205 183 209 231 209 203 228 248 257 252 257 197 240 267 143 215 206 213 208 216 226 222 223 237 248 270 286 289 281 277 292 296 286 277 268 268 265 264 263 263 262 261 260
218 209 112 208 294 227 191 202 270 268 276 264 236 246 260 200 211 201 203 208 237 266 250 251 261 265 271 277 278 278 279 287 288 283 279 274 265 266 268 267 264 265 268 268
217 215 205 198 194 163 283 175 188 211 242 254 255 246 237 192 207 198 209 254 306 326 322 289 279 275 277 281 281 283 280 278 282 280 275 277 274 267 268 268 265 267 268 268
218 201 187 198 215 203 170 186 210 207 266 262 262 238 74 200 197 207 226 257 292 320 328 321 311 298 280 275 283 294 298 295 284 277 275 275 275 272 268 263 265 268 265 261
203 212 219 224 358 309 237 214 198 222 225 243 267 272 70 141 187 211 273 302 308 312 317 321 323 316 300 286 297 303 298 299 295 283 276 275 276 273 270 268 266 266 265 263
175 187 195 188 185 188 216 209 215 221 216 224 234 245 88 46 2 315 298 310 312 315 321 322 323 315 310 306 300 296 296 299 299 292 283 280 277 275 272 272 272 268 266 266
189 216 236 248 285 172 208 208 204 205 218 231 238 258 265 280 291 292 301 306 312 318 319 320 320 316 314 308 300 300 304 303 300 299 291 282 280 276 273 273 273 269 266 265
203 231 243 270 276 241 237 227 212 218 229 238 251 259 275 284 275 279 288 297 304 312 317 318 318 315 311 306 305 306 307 306 304 301 295 286 283 278 273 272 271 271 267 265
199 218 228 259 255 249 255 245 229 232 238 245 263 272 282 296 289 280 281 283 290 300 306 309 311 311 310 308 308 307 305 305 302 297 293 293 287 283 279 278 275 271 268 265
186 186 217 251 276 268 254 234 215 213 218 222 239 250 271 281 273 271 271 273 281 293 300 304 306 305 307 307 306 303 302 302 296 292 291 292 289 285 282 280 275 271 268 267
185 186 211 262 258 241 258 101 204 210 229 225 242 257 254 268 285 279 263 266 279 290 295 299 304 306 308 308 306 303 301 296 290 288 290 293 290 284 280 276 272 273 271 267
210 195 194 213 247 269 261 201 188 202 243 219 228 248 265 296 290 258 240 266 279 284 287 292 299 302 304 304 304 302 300 297 292 289 290 290 286 282 280 274 275 273 273 271
170 203 206 206 233 247 254 133 163 186 252 206 215 233 245 247 269 287 316 290 288 290 290 296 301 302 302 305 305 298 297 296 292 292 292 289 285 277 275 273 270 268 265 267
173 189 211 220 240 262 54 139 166 207 270 141 214 226 214 225 263 311 306 292 289 290 292 298 298 297 301 305 301 295 296 296 295 295 295 292 288 282 278 275 269 267 268 274
189 186 196 196 222 245 140 155 199 252 41 189 238 241 242 254 277 290 288 287 289 290 292 295 295 298 303 304 300 297 299 302 302 296 296 295 293 290 284 279 280 281 274 260
214 212 202 206 225 356 173 205 235 254 235 260 272 274 262 264 269 281 286 286 285 286 289 292 293 298 304 306 300 296 302 309 307 301 298 299 296 292 291 283 274 265 259 246
219 214 223 243 254 247 234 245 252 251 256 271 274 273 261 261 266 273 279 283 285 286 286 290 294 298 303 308 302 297 305 308 303 302 306 307 303 307 308 294 281 258 232 228
212 182 214 247 264 274 250 237 243 252 260 272 276 269 259 258 265 267 272 277 280 283 284 285 287 291 299 306 305 307 307 304 299 302 307 309 310 306 304 305 308 275 256 256
194 196 203 232 224 221 246 226 227 237 248 251 259 267 263 256 260 267 271 275 277 279 285 287 289 293 300 305 305 307 306 301 297 304 306 306 306 303 304 313 340 15 18 15